Home   Weather   Kitchener   Past weeks
Flag for Canada

Past Weather in Kitchener, Ontario, Canada — Yesterday and Last 2 Weeks

Now
75 °F

Clear.


Feels Like: 76 °F
Forecast: 81 / 67 °F
Wind: 3 mph from North

Location: Waterloo Well

Current Time: Jul 17, 2019 at 9:25:48 pm

Latest Report: Jul 17, 2019 at 9:00 pm


Visibility: 9 mi

Pressure: 29.91 "Hg

Humidity: 78%

Dew Point: 68 °F

Location of KitchenerLocation

Past Weather in Kitchener — Graph

°F

Kitchener Temperature Yesterday

Maximum temperature yesterday: 84 °F (at 11:00 am)
Minimum temperature yesterday: 63 °F (at 3:00 am)
Average temperature yesterday: 74 °F

High & Low Weather Summary for the Past Weeks

 TemperatureHumidityPressure
High90 °F (Jul 5, 2:55 pm)100% (Jul 2, 10:01 pm)30.14 "Hg (Jul 2, 10:01 pm)
Low46 °F (Jul 15, 5:44 am)39% (Jul 8, 3:00 pm)29.75 "Hg (Jul 11, 12:38 pm)
Average71 °F78%29.97 "Hg
* Reported Jul 2 8:00 pm — Jul 17 8:00 pm, Kitchener. Weather by CustomWeather, © 2019

Note: Actual official high and low records may vary slightly from our data, if they occured in-between our weather recording intervals... More about our weather records

Advertising

Kitchener Weather History for the Previous 24 Hours

Scroll right to see more
 ConditionsComfort  
Time TempWeatherWind HumidityBarometerVisibility
8:00 pm
Wed, Jul 17
79 °FSunny.7 mph74%29.89 "Hg9 mi
7:00 pm82 °FScattered clouds.5 mph66%29.87 "Hg9 mi
6:00 pm82 °FSunny.7 mph66%29.87 "Hg9 mi
5:07 pm81 °FScattered clouds.7 mph70%29.86 "Hg9 mi
4:44 pm81 °FThundershowers. Broken clouds.7 mph70%29.86 "Hg9 mi
4:38 pm79 °FCloudy.9 mph70%29.87 "Hg9 mi
4:19 pm81 °FThundershowers. Broken clouds.7 mph70%29.86 "Hg9 mi
4:00 pm82 °FThundershowers. Sunny.6 mph66%29.86 "Hg9 mi
3:51 pm81 °FThundershowers. Passing clouds.6 mph70%29.87 "Hg9 mi
3:00 pm82 °FSunny.3 mph74%29.88 "Hg9 mi
2:00 pm79 °FSunny.5 mph74%29.90 "Hg9 mi
1:25 pm79 °FScattered clouds.3 mph79%29.90 "Hg9 mi
1:00 pm77 °FOvercast.2 mph83%29.90 "Hg9 mi
12:00 pm73 °FLow clouds.3 mph94%29.90 "Hg9 mi
11:52 am73 °FLow clouds.3 mph94%29.90 "Hg9 mi
11:10 am72 °FPartly sunny.5 mph100%29.89 "Hg9 mi
10:59 am72 °FLight rain. Mostly cloudy.6 mph94%29.90 "Hg9 mi
10:38 am70 °FMostly cloudy.2 mph100%29.91 "Hg9 mi
10:00 am70 °FLight rain. Cloudy.3 mph100%29.90 "Hg9 mi
9:40 am70 °FHeavy rain. Fog.12 mph100%29.91 "Hg1 mi
9:17 am72 °FStrong thunderstorms. Fog.5 mph100%29.91 "Hg1 mi
8:37 am72 °FLight rain. Fog.5 mph100%29.90 "Hg3 mi
7:49 am72 °FLight rain. Mostly cloudy.3 mph94%29.89 "Hg9 mi
7:44 am72 °FMostly cloudy.3 mph100%29.89 "Hg9 mi
7:00 am72 °FOvercast.No wind94%29.90 "Hg9 mi
6:46 am72 °FCloudy.3 mph94%29.90 "Hg9 mi
6:31 am72 °FCloudy.3 mph94%29.89 "Hg9 mi
6:24 am72 °FLight rain. Cloudy.6 mph100%29.89 "Hg9 mi
6:15 am72 °FRain. Fog.7 mph100%29.89 "Hg3 mi
6:00 am72 °FLight rain. Fog.6 mph100%29.90 "Hg2 mi
5:37 am72 °FRain. Fog.5 mph100%29.89 "Hg2 mi
5:06 am72 °FRain. Fog.7 mph100%29.89 "Hg2 mi
4:39 am72 °FFog.5 mph100%29.89 "Hg5 mi
4:00 am72 °FLow clouds.3 mph94%29.89 "Hg9 mi
3:53 am72 °FLow clouds.6 mph100%29.89 "Hg9 mi
3:29 am72 °FLight rain. Low clouds.6 mph94%29.89 "Hg9 mi
3:00 am72 °FLow clouds.7 mph94%29.89 "Hg9 mi
2:40 am72 °FLow clouds.3 mph94%29.90 "Hg9 mi
2:24 am72 °FLight rain. Low clouds.3 mph94%29.91 "Hg9 mi
2:01 am72 °FMostly cloudy.3 mph94%29.91 "Hg8 mi
1:00 am72 °FMostly cloudy.7 mph94%29.92 "Hg8 mi
12:25 am72 °FPassing clouds.6 mph94%29.93 "Hg9 mi
12:00 am73 °FLight rain. Partly cloudy.6 mph94%29.93 "Hg9 mi
11:00 pm
Tue, Jul 16
73 °FLight rain. Passing clouds.9 mph94%29.93 "Hg9 mi
10:00 pm75 °FLight rain. Mostly cloudy.5 mph89%29.93 "Hg9 mi
9:00 pm75 °FLight rain. Mostly cloudy.6 mph83%29.92 "Hg9 mi
Weather by CustomWeather, © 2019

See weather overview